Weather History for KBFW - June, 2012

Change the Weather History Date:

Monday, June 11, 2012

  Actual Average Record
Temperature  
Mean Temperature 60 °F -  
Max Temperature 73 °F 64 °F 82 °F (1997)
Min Temperature 48 °F 42 °F 32 °F (2003)
Degree Days  
Heating Degree Days 4    
Growing Degree Days 10 (Base 50)    
Moisture  
Dew Point 48 °F    
Average Humidity 64    
Maximum Humidity 88    
Minimum Humidity 31    
Precipitation  
Precipitation 0.25 in - - ()
Sea Level Pressure  
Sea Level Pressure 29.66 in    
Wind  
Wind Speed 7 mph (WSW)    
Max Wind Speed 22 mph    
Max Gust Speed 33 mph    
Visibility 10 miles    
Events Rain , Thunderstorm    
Averages and records for this station are not official NWS values.
T = Trace of Precipitation, MM = Missing Value Source: NWS Daily Summary

Daily Weather History Graph

Daily Weather History Graph

Search for Another Location

Airport or City:

Trip Planner

Search our weather history database for the weather conditions in past years. The results will help you decide how hot, cold, wet, or windy it might be!

Date:

Astronomy

Jun. 11, 2012 Rise Set
Actual Time 5:09 AM CDT 9:01 PM CDT
Civil Twilight 4:29 AM CDT 9:41 PM CDT
Nautical Twilight 3:34 AM CDT 10:36 PM CDT
Astronomical Twilight 2:13 AM CDT 11:59 PM CDT
Moon 12:55 AM CDT (6/11) 1:28 PM CDT (6/11)
Length of Visible Light 17h 12m
Length of Day
15h 52m
Waning Gibbous, 47% of the Moon is Illuminated
Jun 11
Waning Gibbous
Jun 19
New
Jun 26
First Quarter
Jul 3
Full
Jul 10
Last Quarter

Hourly Weather History & Observations

Time (CDT) Temp. Dew Point Humidity Pressure Visibility Wind Dir Wind Speed Gust Speed Precip Events Conditions
12:14 AM 66.2 °F 59.0 °F 78% 29.64 in 10.0 mi SW 9.2 mph 25.3 mph 0.09 in Rain , Thunderstorm Light Thunderstorms and Rain
12:34 AM 66.2 °F 60.8 °F 83% 29.62 in 7.0 mi WSW 10.4 mph 17.3 mph 0.16 in Rain , Thunderstorm Rain
12:54 AM 64.4 °F 59.0 °F 83% 29.64 in 10.0 mi South 17.3 mph 24.2 mph 0.04 in Rain Rain
1:14 AM 64.4 °F 59.0 °F 83% 29.61 in 10.0 mi SW 4.6 mph - 0.15 in Rain Rain
1:34 AM 64.4 °F 59.0 °F 83% 29.58 in 10.0 mi WNW 3.5 mph - 0.18 in Rain Light Rain
1:54 AM 64.4 °F 59.0 °F 83% 29.55 in 10.0 mi West 4.6 mph - N/A   Scattered Clouds
2:14 AM 62.6 °F 57.2 °F 82% 29.57 in 10.0 mi WNW 4.6 mph - N/A   Clear
2:34 AM 62.6 °F 55.4 °F 77% 29.60 in 10.0 mi Calm Calm - N/A   Clear
2:54 AM 60.8 °F 55.4 °F 82% 29.60 in 10.0 mi Calm Calm - N/A   Clear
3:14 AM 59.0 °F 53.6 °F 82% 29.62 in 10.0 mi Calm Calm - N/A   Clear
3:34 AM 57.2 °F 53.6 °F 88% 29.62 in 10.0 mi Calm Calm - N/A   Clear
3:54 AM 57.2 °F 51.8 °F 82% 29.63 in 10.0 mi Calm Calm - N/A   Clear
4:34 AM 55.4 °F 51.8 °F 88% 29.64 in 10.0 mi Calm Calm - N/A   Clear
4:54 AM 55.4 °F 51.8 °F 88% 29.64 in 10.0 mi Calm Calm - N/A   Clear
5:14 AM 55.4 °F 51.8 °F 88% 29.64 in 10.0 mi Calm Calm - N/A   Clear
5:34 AM 53.6 °F 50.0 °F 88% 29.64 in 10.0 mi Calm Calm - N/A   Clear
5:54 AM 53.6 °F 50.0 °F 88% 29.65 in 10.0 mi Calm Calm - N/A   Clear
6:14 AM 55.4 °F 51.8 °F 88% 29.65 in 10.0 mi Calm Calm - N/A   Clear
6:34 AM 55.4 °F 51.8 °F 88% 29.65 in 10.0 mi Calm Calm - N/A   Clear
6:54 AM 55.4 °F 51.8 °F 88% 29.65 in 10.0 mi Calm Calm - N/A   Clear
7:14 AM 57.2 °F 53.6 °F 88% 29.64 in 10.0 mi SW 4.6 mph - N/A   Clear
7:34 AM 59.0 °F 55.4 °F 88% 29.64 in 10.0 mi SW 5.8 mph - N/A   Scattered Clouds
7:54 AM 60.8 °F 55.4 °F 82% 29.64 in 10.0 mi SSW 10.4 mph - N/A   Overcast
8:14 AM 60.8 °F 53.6 °F 77% 29.64 in 10.0 mi SW 10.4 mph - N/A   Mostly Cloudy
8:34 AM 60.8 °F 53.6 °F 77% 29.64 in 10.0 mi SW 11.5 mph - N/A   Scattered Clouds
8:54 AM 60.8 °F 53.6 °F 77% 29.64 in 10.0 mi SSW 15.0 mph 18.4 mph N/A   Scattered Clouds
9:14 AM 62.6 °F 55.4 °F 77% 29.64 in 10.0 mi SSW 6.9 mph - N/A   Clear
9:34 AM 64.4 °F 55.4 °F 73% 29.64 in 10.0 mi SSW 8.1 mph - N/A   Clear
9:54 AM 66.2 °F 53.6 °F 64% 29.64 in 10.0 mi SW 9.2 mph - N/A   Clear
10:14 AM 68.0 °F 53.6 °F 60% 29.64 in 10.0 mi SW 9.2 mph 18.4 mph N/A   Clear
10:34 AM 69.8 °F 53.6 °F 56% 29.63 in 10.0 mi SSW 10.4 mph - N/A   Clear
10:54 AM 69.8 °F 51.8 °F 53% 29.62 in 10.0 mi SW 13.8 mph 18.4 mph N/A   Clear
11:14 AM 71.6 °F 53.6 °F 53% 29.62 in 10.0 mi SSW 15.0 mph 19.6 mph N/A   Clear
11:34 AM 71.6 °F 51.8 °F 50% 29.62 in 10.0 mi SSW 15.0 mph 24.2 mph N/A   Clear
11:54 AM 71.6 °F 51.8 °F 50% 29.62 in 10.0 mi SSW 15.0 mph 21.9 mph N/A   Clear
12:14 PM 71.6 °F 50.0 °F 46% 29.62 in 10.0 mi SW 16.1 mph 25.3 mph N/A   Clear
12:34 PM 73.4 °F 48.2 °F 41% 29.63 in 10.0 mi SW 18.4 mph 25.3 mph N/A   Clear
12:54 PM 73.4 °F 50.0 °F 44% 29.62 in 10.0 mi SSW 17.3 mph 27.6 mph N/A   Clear
1:14 PM 71.6 °F 48.2 °F 43% 29.61 in 10.0 mi SSW 21.9 mph 33.4 mph N/A   Clear
1:34 PM 71.6 °F 50.0 °F 46% 29.61 in 10.0 mi SW 18.4 mph 32.2 mph N/A   Clear
1:54 PM 71.6 °F 50.0 °F 46% 29.61 in 10.0 mi SW 13.8 mph 23.0 mph N/A   Scattered Clouds
2:14 PM 71.6 °F 46.4 °F 41% 29.61 in 10.0 mi WSW 11.5 mph 21.9 mph N/A   Scattered Clouds
2:34 PM 73.4 °F 46.4 °F 38% 29.62 in 10.0 mi WSW 10.4 mph 20.7 mph N/A   Scattered Clouds
2:54 PM 71.6 °F 46.4 °F 41% 29.62 in 10.0 mi WSW 11.5 mph 20.7 mph N/A   Scattered Clouds
3:14 PM 73.4 °F 42.8 °F 33% 29.63 in 10.0 mi WSW 11.5 mph 21.9 mph N/A   Clear
3:34 PM 71.6 °F 42.8 °F 35% 29.63 in 10.0 mi West 6.9 mph 24.2 mph N/A   Scattered Clouds
3:54 PM 71.6 °F 42.8 °F 35% 29.64 in 10.0 mi West 10.4 mph 18.4 mph N/A   Scattered Clouds
4:14 PM 71.6 °F 42.8 °F 35% 29.64 in 10.0 mi West 8.1 mph 18.4 mph N/A   Clear
4:34 PM 71.6 °F 39.2 °F 31% 29.65 in 10.0 mi West 9.2 mph 21.9 mph N/A   Clear
4:54 PM 71.6 °F 39.2 °F 31% 29.65 in 10.0 mi West 9.2 mph - N/A   Clear
5:14 PM 69.8 °F 37.4 °F 31% 29.66 in 10.0 mi WSW 11.5 mph 20.7 mph N/A   Clear
5:34 PM 68.0 °F 39.2 °F 35% 29.67 in 10.0 mi WSW 6.9 mph - N/A   Scattered Clouds
5:54 PM 68.0 °F 39.2 °F 35% 29.67 in 10.0 mi West 8.1 mph - N/A   Mostly Cloudy
6:14 PM 66.2 °F 42.8 °F 43% 29.69 in 5.0 mi WSW 11.5 mph 21.9 mph N/A Rain Rain
6:34 PM 60.8 °F 48.2 °F 63% 29.71 in 7.0 mi West 5.8 mph - 0.03 in Rain Rain
6:54 PM 59.0 °F 51.8 °F 77% 29.71 in 10.0 mi WSW 4.6 mph - N/A   Mostly Cloudy
7:14 PM 59.0 °F 48.2 °F 67% 29.73 in 10.0 mi West 10.4 mph 21.9 mph N/A   Scattered Clouds
7:34 PM 55.4 °F 44.6 °F 67% 29.73 in 10.0 mi West 6.9 mph 19.6 mph N/A   Clear
7:54 PM 55.4 °F 42.8 °F 63% 29.73 in 10.0 mi West 8.1 mph - N/A   Clear
8:14 PM 53.6 °F 42.8 °F 67% 29.74 in 10.0 mi West 6.9 mph - N/A   Clear
8:34 PM 53.6 °F 39.2 °F 58% 29.74 in 10.0 mi West 8.1 mph 20.7 mph N/A   Clear
8:54 PM 51.8 °F 37.4 °F 58% 29.75 in 10.0 mi West 6.9 mph - N/A   Clear
9:14 PM 51.8 °F 37.4 °F 58% 29.76 in 10.0 mi West 5.8 mph - N/A   Mostly Cloudy
9:34 PM 51.8 °F 37.4 °F 58% 29.77 in 10.0 mi West 6.9 mph - N/A   Overcast
9:54 PM 51.8 °F 37.4 °F 58% 29.78 in 10.0 mi West 8.1 mph - N/A   Overcast
10:14 PM 51.8 °F 37.4 °F 58% 29.79 in 10.0 mi West 5.8 mph - N/A   Mostly Cloudy
10:35 PM 51.8 °F 37.4 °F 58% 29.80 in 10.0 mi West 5.8 mph - N/A   Scattered Clouds
10:54 PM 50.0 °F 37.4 °F 62% 29.80 in 10.0 mi West 6.9 mph - N/A   Scattered Clouds
11:14 PM 48.2 °F 39.2 °F 71% 29.80 in 10.0 mi West 4.6 mph - N/A   Clear
11:34 PM 48.2 °F 39.2 °F 71% 29.80 in 10.0 mi West 5.8 mph - N/A   Scattered Clouds
11:54 PM 48.2 °F 39.2 °F 71% 29.81 in 10.0 mi West 5.8 mph - N/A   Scattered Clouds